Flag for Micronesia Weather past 2 weeks in Palikir, Pohnpei, Micronesia

Now
78 °F

Broken clouds.


Feels Like: 81 °F
Forecast: 75 / 87 °F
Wind: 3 mph from South

Location: Pohnpei

Current Time: Apr 28, 2015 at 8:54:47 AM

Latest Report: Apr 28, 2015 at 7:50 AM


Visibility: 15 mi

Pressure: 29.86 "Hg

Humidity: 95%

Dew point: 76 °F

Location of PalikirLocation

Historic Weather in Palikir — Graph

°F

Palikir temperature yesterday

Maximum temperature yesterday: 88 °F (at 2:52 PM)
Minimum temperature yesterday: 77 °F (at 5:53 AM)
Average temperature yesterday: 82 °F

Past Weeks' High & Low Weather Summary

 TemperatureHumidityPressure
High90 °F (Apr 23, 12:50 PM)100% (Apr 22, 2:52 AM)29.98 "Hg (Apr 22, 2:52 AM)
Low74 °F (Apr 14, 4:52 AM)64% (Apr 13, 12:51 PM)29.72 "Hg (Apr 20, 3:50 PM)
Average82 °F85%29.84 "Hg
* Reported Apr 13 6:50 AM — Apr 28 6:53 AM, Palikir, Weather by CustomWeather, © 2015

Note: Actual official high and low records may vary slightly from our data, if they occured in-between our weather recording intervals... More about our weather records

Advertising

Palikir weather history for previous 24 hours

 ConditionsComfort  
Time TempWeatherWind HumidityBarometerVisibility
6:53 AM
Tue, Apr 28
77 °FPartly sunny.3 mph95%29.84 "Hg15 mi
5:53 AM76 °FPassing clouds.3 mph96%29.83 "Hg15 mi
4:52 AM77 °FPassing clouds.3 mph95%29.82 "Hg15 mi
3:50 AM77 °FPassing clouds.3 mph95%29.80 "Hg15 mi
2:53 AM77 °FPassing clouds.3 mph95%29.81 "Hg15 mi
1:52 AM77 °FPassing clouds.3 mph95%29.83 "Hg15 mi
12:52 AM78 °FPassing clouds.3 mph95%29.85 "Hg15 mi
11:55 PM
Mon, Apr 27
78 °FMostly cloudy.6 mph95%29.87 "Hg15 mi
9:50 PM78 °FPartly cloudy.3 mph97%29.88 "Hg15 mi
8:50 PM80 °FPassing clouds.3 mph92%29.86 "Hg15 mi
7:50 PM82 °FPartly cloudy.3 mph90%29.84 "Hg15 mi
6:50 PM83 °FMostly cloudy.3 mph79%29.81 "Hg15 mi
5:50 PM84 °FMostly cloudy.3 mph80%29.80 "Hg15 mi
4:50 PM84 °FMostly cloudy.3 mph84%29.78 "Hg15 mi
3:54 PM85 °FMostly cloudy.2 mph80%29.78 "Hg15 mi
2:52 PM88 °FMostly cloudy.5 mph74%29.77 "Hg15 mi
12:56 PM87 °FBroken clouds.6 mph77%29.81 "Hg15 mi
11:55 AM86 °FMostly cloudy.6 mph81%29.85 "Hg15 mi
10:55 AM85 °FPartly sunny.2 mph81%29.86 "Hg15 mi
9:55 AM84 °FSprinkles. Partly sunny.2 mph84%29.87 "Hg14 mi
8:55 AM85 °FMostly cloudy.2 mph80%29.88 "Hg15 mi
Weather by CustomWeather, © 2015

See weather overviewHow to use our weather pages